Regional Weather Roundup
Issued by NWS

Home | Current Version | Previous Version | Text Only | Print | Product List | Glossary Off
Versions: 1 2 3 4 5 6 7 8 9 10 11 12 13 14 15 16 17 18 19 20 21 22 23 24 25 26 27 28 29 30 31 32 33 34 35 36 37 38 39 40 41 42 43 44 45 46 47 48 49 50

000
ASUS45 KBOU 240407
RWRCO

WEATHER ROUNDUP FOR COLORADO
NATIONAL WEATHER SERVICE DENVER/BOULDER CO
900 PM MST SUN NOV 23 2014

NOTE: "FAIR" INDICATES FEW OR NO CLOUDS BELOW 12000 FEET WITH NO
SIGNIFICANT WEATHER AND/OR OBSTRUCTIONS TO VISIBILITY.

COZ001>005-013-030-031-240500-
...NORTHWEST COLORADO...

CITY           SKY/WX    TMP DP  RH WIND       PRES   REMARKS
CRAIG          PTCLDY    19  11  70 SW15      30.07R WCI   5
HAYDEN         PTCLDY    18   9  68 W6        30.05R WCI   9
MEEKER         CLEAR     17  11  77 CALM      30.09R
MOUNT WERNER   NOT AVBL
STEAMBOAT SPGS PTCLDY    20  12  71 CALM      30.03R
WALDEN         CLEAR     12   3  67 W7        29.93S WCI   2
$$

COZ006>008-011-240500-
...WEST CENTRAL VALLEYS...

CITY           SKY/WX    TMP DP  RH WIND       PRES   REMARKS
GRAND JUNCTION CLEAR     25  17  72 NW10      30.12R WCI  15
MONTROSE       PTCLDY    23  14  68 SE8       30.12R WCI  14
EAGLE          MOCLDY    23  18  80 CALM      30.07R
RIFLE          PTCLDY    20  15  81 NE7       30.11R WCI  11
DELTA          PTCLDY    32  18  56 W7        30.11R WCI  25
NUCLA          PTCLDY    25  19  80 E8        30.15R WCI  16
$$

COZ017>023-064>068-240500-
...SOUTHWEST COLORADO...

CITY           SKY/WX    TMP DP  RH WIND       PRES   REMARKS
DURANGO        CLEAR     25  10  53 W7        30.05R WCI  17
CORTEZ         CLEAR     25  13  60 N5        30.12R WCI  19
PAGOSA SPRINGS CLEAR     24   5  44 NW3       30.02R
TELLURIDE      NOT AVBL
WOLF CREEK PAS CLEAR      3  -8  60 MISG      29.92R
$$

COZ009-010-012-014-032>034-037-058>063-240500-
...CENTRAL COLORADO...

CITY           SKY/WX    TMP DP  RH WIND       PRES   REMARKS
ASPEN          CLOUDY    18  11  74 CALM      30.01R
BUENA VISTA    CLOUDY    22   6  49 W3        29.93S
COPPER MTN     CLOUDY     7   0  72 W32G53    29.84R WCI -17
BERTHOUD PASS  HVY SNOW   0  -6  78 NW41      29.76R VSB 1/4 WCI -30
COTTONWOOD PAS CLOUDY    18   7  62 N8G24     29.86F HAZE    WCI   7
GUNNISON       PTCLDY    18   1  49 SW5       30.04R WCI  11
KREMMLING      FLURRIES  23  12  63 NW9       30.01R WCI  13
LEADVILLE      LGT SNOW  10   6  84 NW6       29.90R FOG     WCI   0
MONARCH PASS   CLOUDY     3   0  85 MISG      29.94F
SALIDA         MOCLDY    25   3  39 W17       30.03R WCI  11
SUNLIGHT       CLOUDY   N/A N/A N/A MISG      29.95S
WILKERSON PASS MOCLDY     7   1  78 NW14G23   29.85R WCI -10
$$

COZ069>075-240500-
...SAN LUIS VALLEY/SANGRE DE CRISTO MOUNTAINS...

CITY           SKY/WX    TMP DP  RH WIND       PRES   REMARKS
ALAMOSA        CLEAR     20   5  52 NW12      29.97R WCI   8
LA VETA PASS   FLURRIES  10   3  72 MISG      29.86F
SAGUACHE       NOT AVBL
$$

COZ035-036-038>040-240500-
...NORTHERN COLORADO FRONT RANGE...

CITY           SKY/WX    TMP DP  RH WIND       PRES   REMARKS
DENVER INTL AP MOCLDY    28  18  66 W8        29.88F WCI  20
DMNS CITY PARK   N/A     30   7  38 W5G10     29.90S WCI  25
AURORA         PTCLDY    29  10  44 W12       29.89F WCI  19
FRONT RANGE AP NOT AVBL
ERIE MUNI ARPT PTCLDY    30  13  49 W5        29.89F WCI  25
BOULDER MUN AP PTCLDY    32   7  34 SW10      29.87F WCI  24
CENTENNIAL     PTCLDY    29   9  43 W14       29.88F WCI  18
BROOMFIELD     MOCLDY    30  10  43 W12       29.89F WCI  21
FORT COLLINS   CLEAR     30  10  43 N8        29.89F WCI  23
LONGMONT       CLEAR     27  14  58 S5        29.90F WCI  22
$$

COZ041-046-047-076>085-087-088-240500-
...PIKES PEAK/PALMER DIVIDE AND SOUTHERN FOOTHILLS...

CITY           SKY/WX    TMP DP  RH WIND       PRES   REMARKS
COLO. SPRINGS  CLEAR     23  18  81 VRB5      29.91S WCI  17
A. F. ACADEMY  CLEAR     15  12  89 N10       29.89S WCI   2
ELLICOTT       NOT AVBL
FALCON         NOT AVBL
FORT CARSON    CLEAR     27  24  87 SW6       29.90S WCI  20
LIMON          PTCLDY    23  15  71 NW14      29.87S WCI  11
MONUMENT HILL  CLEAR     14  12  92 W8        29.87S WCI   3
TRINIDAD       FLURRIES  29  26  89 NW8       29.95R WCI  21
$$

COZ042>045-048>051-090-091-240500-
...NORTHEAST COLORADO...

CITY           SKY/WX    TMP DP  RH WIND       PRES   REMARKS
GREELEY ARPT   CLEAR     21   9  58 W7        29.90F WCI  13
AKRON          CLEAR     25  14  63 W13       29.85S WCI  14
BURLINGTON     CLEAR     27  11  51 NW12      29.84S WCI  17
WRAY           CLEAR     30  14  51 W12       29.83S WCI  21
STERLING       CLEAR     32  21  64 NW14      29.85F WCI  22
HOLYOKE        CLEAR     34  19  55 W13G20    29.81S WCI  25
FORT MORGAN    CLEAR     28  17  62 NW17      29.88S WCI  16
$$

COZ086-089-092>099-240500-
...SOUTHEAST COLORADO...

CITY           SKY/WX    TMP DP  RH WIND       PRES   REMARKS
PUEBLO         CLEAR     27  25  92 SW5       29.94S WCI  22
LA JUNTA       CLOUDY    35  26  69 W12       29.93S WCI  27
LAMAR          CLOUDY    38  23  55 NW14      29.89R
SPRINGFIELD      N/A     33  23  66 NW21G26   29.90R WCI  21
$$


USA.gov is the U.S. government's official web portal to all federal, state and local government web resources and services.